Starlink 30196

operational
NORAD ID: 57448 Int'l Des: 2023-105 Owner: SPXS Country: US Constellation: starlink
LEOCIRCULAR

About Starlink 30196

Description loading...

Live Position

Loading 3D Globe...

Upcoming Passes

Altitude History

Altitude vs Time

uPlot chart will show altitude changes over time

Two-Line Element Set

1 57448U 23105U 25303.85882875 .00002468 00000-0 19758-3 0 9996
2 57448 43.0043 246.8526 0001173 248.3804 111.6914 15.02554603125875
Epoch: Oct 30, 2025 • Age: 10 hours

Current Status

Altitude 560.9 km
Velocity 7.58 km/s
Sub-Earth Point -10.80°S, 101.45°E
Launch Date Jul 24, 2023
Age 2.2 years
Type internet

Technical Details

Classification Payload
Mass 730.00 kg
Dry Mass 700.00 kg
Total Mass 730.00 kg
Length 0.30 m
Diameter 4.10 m
Span 29.00 m
Shape Box + pan
Manufacturer SPXS
Bus Type Starlink V2M
Phase Status In Orbit
Owner/State SPXS/US

Large Constellations

Loading constellations...